Find Starlink 3776

NORAD ID: 52288 Int'l Des: 2022-041 Owner: SPXS Country: US Constellation: starlink operational
LEOCIRCULAR

Aktuelle Ansicht

3D-Globus wird geladen...

Über Starlink 3776

Beschreibung wird geladen...

Nächste Überflüge

Passes for default location (London). Set your location on the main map for personalized predictions.

Höhenverlauf

Loading altitude history...

Zweizeiliger Elementsatz

1 52288U 22041AD 26151.10077286 -.00000182 00000-0 66440-5 0 9997
2 52288 53.1943 89.1553 0001513 91.5096 268.6069 15.08837827226942
Epoch: 31. Mai 2026 • Age: 13 hours

Aktueller Status

Höhe 539.6 km
Geschwindigkeit 7.60 km/s
Subsatellitenpunkt 16.60°N, 127.09°E
Startdatum 21. Apr. 2022
Alter 4.1 years
Typ internet

Technische Details

Klassifizierung Payload
Masse 297.00 kg
Trockenmasse 275.00 kg
Gesamtmasse 297.00 kg
Länge 0.20 m
Durchmesser 2.80 m
Spannweite 9.00 m
Form Box + pan
Hersteller SPXS
Bus-Typ Starlink
Phasenstatus In Orbit
Besitzer/Staat SPXS/US

Most Searched